sat.trackr.live / text

‹ back to catalog

STARLINK-6240

NORAD 57084 · 2023-088AN

PAYLOAD ACTIVE UNKNOWN

§ Identity

Operator
Country
US
Launch date
2023-06-22
Launch site
AFWTR
Launch vehicle
Mass (kg)
RCS (m²)

Purposes: comms

External: N2YO · Heavens-Above · Gunter

§ Orbital elements

Epoch: 2026-09-18T21:55:02.305632Z

Period
94.27 min
Inclination
43.0011°
Eccentricity
0.0001649
Mean motion
15.27574411 rev/d
Perigee alt
481.9 km
Apogee alt
484.2 km
Semi-major
6,861.2 km
B*
5.4795e-5
RAAN
84.7118°
Arg perigee
265.1510°
Mean anomaly
94.9154°
Rev number
18,005

§ Raw data

STARLINK-62401 57084U 23088AN  26261.91322113  .00001246  00000+0  54795-4 0  99902 57084  43.0011  84.7118 0001649 265.1510  94.9154 15.27574411180057

JSON: /api/v1/satellites/57084 · /tle

For live sub-satellite position, see the globe view (requires WebGL).

§ Visibility from observer

Set your observer location to see the next 7 days of passes ≥ 10°. The values pass through the URL so the page stays shareable.

No JS? Fill the form by hand. The geolocation button needs JavaScript.